Regional Weather Roundup
Issued by NWS

Home | Current Version | Previous Version | Text Only | Print | Product List | Glossary Off
Versions: 1 2 3 4 5 6 7 8 9 10 11 12 13 14 15 16 17 18 19 20 21 22 23 24 25 26 27

000
ASUS45 KPSR 142010
RWRAZ

ARIZONA HOURLY REGIONAL WEATHER ROUNDUP
NATIONAL WEATHER SERVICE PHOENIX AZ
100 PM MST THU DEC 14 2017

NOTE: FAIR INDICATES FEW OR NO CLOUDS BELOW 12,000 FEET WITH NO
SIGNIFICANT WEATHER AND/OR OBSTRUCTIONS TO VISIBILITY.

AZZ001>003-036-142100-
NORTHWEST ARIZONA

CITY           SKY/WX    TMP DP  RH WIND       PRES   REMARKS
BULLHEAD CITY  SUNNY     68  23  18 N35G48    30.09F
KINGMAN        SUNNY     59  21  23 N29G37    30.15F
$$

AZZ004>008-015-016-018-142100-
NORTH CENTRAL ARIZONA

CITY           SKY/WX    TMP DP  RH WIND       PRES   REMARKS
GRAND CANYON   SUNNY     45  15  30 NE21G29   30.20S
WILLIAMS       SUNNY     45  18  33 NE23G40   30.13F
PRESCOTT       SUNNY     56  19  23 NE10      30.09F
FLAGSTAFF      SUNNY     41  18  39 NE25G39   30.13F
PAYSON         SUNNY     52  18  25 N17G24    30.07R
PAGE           SUNNY     54  20  26 NE9       30.22S
$$

AZZ009>014-017-142100-
NORTHEAST ARIZONA

CITY           SKY/WX    TMP DP  RH WIND       PRES   REMARKS
WINSLOW        SUNNY     52  20  28 N14G21    30.14F
SAINT JOHNS    MOSUNNY   45  14  28 VRB6      30.10F
WINDOW ROCK    MOSUNNY   46  22  38 N3        30.12S
SHOW LOW       SUNNY     43  18  36 N17G24    30.13F
$$

AZZ540-542>544-546-548-142100-
GREATER PHOENIX AREA

CITY           SKY/WX    TMP DP  RH WIND       PRES   REMARKS
PHOENIX        SUNNY     66  16  14 W6        29.95F
BUCKEYE        SUNNY     66  59  77 S5        29.97F
GLENDALE       SUNNY     68  14  12 CALM      29.97F
DEER VALLEY    SUNNY     69  12  11 SW8       29.94F
SCOTTSDALE     SUNNY     70  19  14 SW6       29.96F
MESA-FALCON    SUNNY     70  16  12 N9        29.96F
MESA-GATEWAY   SUNNY     66  21  18 W6        29.97F
$$

AZZ539-553-142100-
SOUTHWEST MARICOPA COUNTY AND PINAL COUNTY

CITY           SKY/WX    TMP DP  RH WIND       PRES   REMARKS
CASA GRANDE    NOT AVBL
GILA BEND      SUNNY     66  14  13 NW5       29.96F
$$

AZZ503-504-507>509-142100-
SOUTHEAST ARIZONA

CITY           SKY/WX    TMP DP  RH WIND       PRES   REMARKS
TUCSON         SUNNY     68  19  15 NW3       29.97F
DAVIS-MONTHAN  SUNNY     69  19  15 NW6       29.95F
RYAN FIELD     SUNNY     68  14  12 NW10G16   29.97F
NOGALES        SUNNY     67  20  16 SW10      29.97F
SIERRA VISTA   SUNNY     63  19  18 W14G21    29.99F
DOUGLAS        PTSUNNY   64  28  25 W6        29.96F
SAFFORD        MOSUNNY   59  16  18 W8        29.97F
$$

AZZ532-142100-
SOUTHWEST ARIZONA

CITY           SKY/WX    TMP DP  RH WIND       PRES   REMARKS
YUMA           SUNNY     74  20  13 N17G31    29.98F
$$

CAZ041-043-047-048-061-525>527-560>570-142100-
SOUTHERN CALIFORNIA

CITY           SKY/WX    TMP DP  RH WIND       PRES   REMARKS
DOWNTOWN L.A.  SUNNY     74  30  19 CALM      30.00F
L.A. AIRPORT   MOSUNNY   68  48  48 W8        30.02S
SAN DIEGO      MOSUNNY   71  13  10 CALM      30.01F
BURBANK        SUNNY     76  22  13 SE13      30.01S
ONTARIO        MOSUNNY   82   9   6 NE16G31   30.01F
RIVERSIDE      SUNNY     79  17  10 N16G31    30.00F
PALM SPRINGS   SUNNY     82  12   7 N15       30.08R
EL CENTRO NAS  SUNNY     78  13   8 N24G32    30.02F BLWGDUST
IMPERIAL       SUNNY     77  15   9 NW14G24   30.00F
BLYTHE         SUNNY     75  23  14 N29G39    30.02S
NEEDLES        SUNNY     70  23  17 NE32G40   30.11S
$$

NVZ020-UTZ003-142100-
SOUTHERN NEVADA-UTAH

CITY           SKY/WX    TMP DP  RH WIND       PRES   REMARKS
LAS VEGAS      SUNNY     64  22  20 N16       30.22F
SALT LAKE CITY MOSUNNY   38  28  67 CALM      30.43F
$$

NMZ009-TXZ055-142100-
NEW MEXICO-WEST TEXAS

CITY           SKY/WX    TMP DP  RH WIND       PRES   REMARKS
ALBUQUERQUE    CLOUDY    45  13  27 E21       30.13F
EL PASO        MOSUNNY   60  25  26 N5        30.00F
$$


........................KEY........................
SKY/WX - SKY CONDITION/WEATHER
TMP    - TEMPERATURE IN FAHRENHEIT
DP     - DEW POINT IN FAHRENHEIT
RH     - RELATIVE HUMIDITY IN PERCENT
WIND   - DIRECTION AND SPEED IN MILES PER HOUR (MPH)
VRB    - VARIABLE WIND DIRECTION
PRES   - MEAN SEA LEVEL PRESSURE IN INCHES OF MERCURY
         F - FALLING PRESSURE   R - RISING PRESSURE
         S - STEADY PRESSURE
VSB    - VISIBILITY IN MILES
HX     - HEAT INDEX IN FAHRENHEIT
WCI    - WIND CHILL INDEX IN FAHRENHEIT
TC     - TEMPERATURE IN CELSIUS WHICH IS ALSO KNOWN AS
         TEMPERATURE IN CENTIGRADE
AFB    - AIR FORCE BASE
         LUKE AFB IS LUKE AIR FORCE BASE
         DAVIS-MONTHAN IS DAVIS-MONTHAN AIR FORCE BASE
NAS    - NAVAL AIR STATION
         EL CENTRO NAS IS EL CENTRO NAVAL AIR STATION
N/A    - NOT AVAILABLE





USA.gov is the U.S. government's official web portal to all federal, state and local government web resources and services.